This demonstration page uses our WeatherBlox Daily Observations layout. Learn more.

Left ArrowRight Arrow

53.62937, 11.41316

Hourly Observations for January 10, 2022

Temp ( °F °C ) Dew Point ( °F °C ) Humidity (%) Winds ( mph kmh ) Pressure ( in mb ) Visibility ( mi km ) Precip ( " mm )
12:20 am 00:20 Mostly Clear 34 1 32 0 93 93 VRB 2 4 29.71 1006 2 3 N/A
12:50 am 00:50 Mostly Cloudy 34 1 34 1 100 100 VRB 2 4 29.74 1007 2 3 N/A
1:20 am 01:20 Partly Cloudy 34 1 34 1 100 100 NNW 2 4 29.74 1007 3 4 N/A
1:50 am 01:50 Partly Cloudy 34 1 34 1 100 100 VRB 2 4 29.77 1008 4 6 N/A
2:20 am 02:20 Mostly Cloudy 34 1 34 1 100 100 VRB 1 2 29.77 1008 4 6 N/A
2:50 am 02:50 Mostly Cloudy 34 1 34 1 100 100 NNW 2 4 29.80 1009 4 6 N/A
3:20 am 03:20 Partly Cloudy 34 1 34 1 100 100 Calm 29.83 1010 3 5 N/A
3:50 am 03:50 Mostly Clear 34 1 34 1 100 100 WNW 2 4 29.83 1010 2 4 N/A
4:20 am 04:20 Mostly Clear 34 1 34 1 100 100 WNW 3 6 29.86 1011 2 4 N/A
4:50 am 04:50 Mostly Clear 34 1 34 1 100 100 WNW 2 4 29.86 1011 3 4 N/A
5:20 am 05:20 Mostly Clear 34 1 34 1 100 100 NW 3 6 29.89 1012 3 4 N/A
5:50 am 05:50 Mostly Clear 36 2 34 1 93 93 NW 3 6 29.92 1013 3 4 N/A
6:20 am 06:20 Partly Cloudy with Mist and Fog 36 2 34 1 93 93 NW 2 4 29.92 1013 3 4 N/A
6:50 am 06:50 Partly Cloudy with Light Rain 36 2 34 1 93 93 WNW 2 4 29.95 1014 3 4 N/A
7:20 am 07:20 Mostly Cloudy with Light Rain 36 2 36 2 100 100 NNE 3 6 29.98 1015 3 5 N/A
7:50 am 07:50 Mostly Cloudy with Mist and Fog 36 2 36 2 100 100 NNE 5 7 29.98 1015 3 5 N/A
8:20 am 08:20 Mostly Cloudy with Mist and Fog 36 2 36 2 100 100 NE 2 4 30.01 1016 3 5 N/A
8:50 am 08:50 Cloudy with Mist and Fog 36 2 36 2 100 100 N 2 4 30.03 1017 3 5 N/A
9:20 am 09:20 Mostly Cloudy with Mist and Fog 36 2 36 2 100 100 Calm 30.06 1018 3 5 N/A
9:50 am 09:50 Mostly Cloudy with Mist and Fog 36 2 36 2 100 100 VRB 2 4 30.06 1018 3 5 N/A
10:20 am 10:20 Mostly Cloudy with Mist and Fog 36 2 36 2 100 100 NE 3 6 30.06 1018 3 5 N/A
10:50 am 10:50 Cloudy with Mist and Fog 37 3 36 2 93 93 N 5 7 30.12 1020 3 5 N/A
11:20 am 11:20 Cloudy with Mist and Fog 37 3 36 2 93 93 N 6 9 30.12 1020 3 5 N/A
11:50 am 11:50 Cloudy with Mist and Fog 37 3 36 2 93 93 NNE 5 7 30.12 1020 3 5 N/A
12:20 pm 12:20 Cloudy with Mist and Fog 37 3 36 2 93 93 N 6 9 30.15 1021 3 5 N/A
12:50 pm 12:50 Mostly Cloudy 37 3 34 1 87 87 ENE 3 6 30.15 1021 4 6 N/A
1:20 pm 13:20 Cloudy 37 3 36 2 93 93 NNE 3 6 30.18 1022 4 6 N/A
1:50 pm 13:50 Mostly Cloudy with Mist and Fog 37 3 36 2 93 93 NE 3 6 30.18 1022 3 5 N/A
2:50 pm 14:50 Cloudy 37 3 36 2 93 93 ENE 5 7 30.21 1023 4 6 N/A
3:20 pm 15:20 Cloudy 37 3 36 2 93 93 VRB 2 4 30.24 1024 4 6 N/A
3:50 pm 15:50 Mostly Cloudy 37 3 36 2 93 93 E 3 6 30.24 1024 4 6 N/A
4:20 pm 16:20 Mostly Cloudy 37 3 36 2 93 93 VRB 2 4 30.27 1025 3 5 N/A
4:50 pm 16:50 Mostly Cloudy 37 3 36 2 93 93 VRB 1 2 30.27 1025 4 6 N/A
5:20 pm 17:20 Cloudy 37 3 36 2 93 93 E 2 4 30.30 1026 3 5 N/A
5:50 pm 17:50 Cloudy 37 3 36 2 93 93 E 1 2 30.30 1026 3 5 N/A
6:20 pm 18:20 Mostly Cloudy with Mist and Fog 37 3 36 2 93 93 VRB 1 2 30.33 1027 3 5 N/A
6:50 pm 18:50 Cloudy with Mist and Fog 36 2 36 2 100 100 VRB 2 4 30.33 1027 2 4 N/A
7:20 pm 19:20 Mostly Cloudy with Mist and Fog 36 2 36 2 100 100 E 2 4 30.36 1028 3 5 N/A
7:50 pm 19:50 Cloudy with Mist and Fog 36 2 36 2 100 100 E 2 4 30.36 1028 3 4 N/A
8:20 pm 20:20 Cloudy with Mist and Fog 36 2 36 2 100 100 E 3 6 30.39 1029 2 4 N/A
8:50 pm 20:50 Cloudy with Mist and Fog 36 2 34 1 93 93 E 5 7 30.39 1029 3 4 N/A
9:20 pm 21:20 Mostly Cloudy with Mist and Fog 36 2 34 1 93 93 ESE 3 6 30.39 1029 3 4 N/A
9:50 pm 21:50 Mostly Cloudy with Mist and Fog 36 2 34 1 93 93 SE 3 6 30.42 1030 2 3 N/A

Powered by AerisWeather